Weather History for KIGM - April, 2014

Change the Weather History Date:

Thursday, April 17, 2014

  Actual Average Record
Temperature  
Mean Temperature 68 °F 59 °F  
Max Temperature 85 °F 74 °F 92 °F (1936)
Min Temperature 51 °F 44 °F 28 °F (2008)
Degree Days  
Heating Degree Days 0 7  
Month to date heating degree days 106 149  
Since 1 July heating degree days 2734 2980  
Cooling Degree Days 3 1  
Month to date cooling degree days 19 10  
Year to date cooling degree days 19 13  
Growing Degree Days 20 (Base 50)    
Moisture  
Dew Point 15 °F    
Average Humidity 14    
Maximum Humidity 20    
Minimum Humidity 7    
Precipitation  
Precipitation 0.00 in 0.01 in 0.80 in (1917)
Month to date precipitation T 0.28  
Year to date precipitation 0.55 3.20  
Sea Level Pressure  
Sea Level Pressure 29.77 in    
Wind  
Wind Speed 15 mph (South)    
Max Wind Speed 30 mph    
Max Gust Speed 36 mph    
Visibility 10 miles    
Events      
T = Trace of Precipitation, MM = Missing Value Source: NWS Daily Summary

Daily Weather History Graph

Daily Weather History Graph

Search for Another Location

Airport or City:

Trip Planner

Search our weather history database for the weather conditions in past years. The results will help you decide how hot, cold, wet, or windy it might be!

Date:

Astronomy

Apr. 17, 2014 Rise Set
Actual Time 6:00 AM MST 7:10 PM MST
Civil Twilight 5:34 AM MST 7:36 PM MST
Nautical Twilight 5:03 AM MST 8:07 PM MST
Astronomical Twilight 4:30 AM MST 8:40 PM MST
Moon 9:55 PM MST (4/17) 7:39 AM MST (4/17)
Length of Visible Light 14h 02m
Length of Day
13h 09m
Waning Gibbous, 93% of the Moon is Illuminated
Apr 17
Waning Gibbous
Apr 22
Last Quarter
Apr 28
New
May 6
First Quarter
May 14
Full

Hourly Weather History & Observations

Time (MST) Temp. Dew Point Humidity Pressure Visibility Wind Dir Wind Speed Gust Speed Precip Events Conditions
12:51 AM 55.0 °F 12.9 °F 19% 29.72 in 10.0 mi East 3.5 mph - N/A   Clear
1:51 AM 55.4 °F 14.0 °F 20% 29.89 in 10.0 mi Calm Calm - N/A   Clear
2:51 AM 55.9 °F 15.1 °F 20% 29.71 in 10.0 mi SE 11.5 mph - N/A   Clear
3:51 AM 60.1 °F 15.1 °F 17% 29.71 in 10.0 mi SE 15.0 mph - N/A   Clear
4:51 AM 62.1 °F 15.1 °F 16% 29.72 in 10.0 mi SE 16.1 mph - N/A   Clear
5:51 AM 57.9 °F 16.0 °F 19% 29.73 in 10.0 mi SE 12.7 mph - N/A   Clear
6:51 AM 61.0 °F 16.0 °F 17% 29.76 in 10.0 mi SE 13.8 mph - N/A   Clear
7:51 AM 68.0 °F 17.1 °F 14% 29.79 in 10.0 mi ESE 12.7 mph - N/A   Clear
8:51 AM 73.0 °F 18.0 °F 12% 29.80 in 10.0 mi SSE 4.6 mph - N/A   Clear
9:51 AM 75.2 °F 17.6 °F 11% 29.99 in 10.0 mi West 6.9 mph - N/A   Clear
10:51 AM 79.0 °F 16.0 °F 9% 29.81 in 10.0 mi SW 12.7 mph 18.4 mph N/A   Clear
11:51 AM 82.0 °F 15.1 °F 8% 29.79 in 10.0 mi SW 23.0 mph 27.6 mph N/A   Clear
12:51 PM 82.9 °F 15.1 °F 8% 29.78 in 10.0 mi SW 25.3 mph 31.1 mph N/A   Clear
1:51 PM 82.9 °F 15.1 °F 8% 29.76 in 10.0 mi SW 24.2 mph 29.9 mph N/A   Clear
2:51 PM 84.9 °F 14.0 °F 7% 29.74 in 10.0 mi SSW 25.3 mph 28.8 mph N/A   Clear
3:51 PM 82.9 °F 14.0 °F 8% 29.72 in 10.0 mi SW 26.5 mph 32.2 mph N/A   Clear
4:51 PM 81.0 °F 12.9 °F 8% 29.72 in 10.0 mi SW 25.3 mph 29.9 mph N/A   Clear
5:51 PM 78.1 °F 12.0 °F 8% 29.73 in 10.0 mi SW 18.4 mph - N/A   Clear
6:51 PM 75.9 °F 12.0 °F 9% 29.73 in 10.0 mi SSW 11.5 mph - N/A   Clear
7:51 PM 71.6 °F 15.8 °F 12% 29.92 in 10.0 mi SSW 12.7 mph - N/A   Clear
8:51 PM 66.2 °F 15.8 °F 14% 29.93 in 10.0 mi South 11.5 mph - N/A   Clear
9:51 PM 68.0 °F 17.1 °F 14% 29.75 in 10.0 mi South 11.5 mph - N/A   Clear
10:51 PM 64.9 °F 17.1 °F 16% 29.74 in 10.0 mi South 12.7 mph - N/A   Clear
11:51 PM 64.0 °F 16.0 °F 16% 29.73 in 10.0 mi South 11.5 mph - N/A   Clear